Time,TemperatureF,DewpointF,PressureIn,WindDirection,WindDirectionDegrees,WindSpeedMPH,WindSpeedGustMPH,Humidity,HourlyPrecipIn,Conditions,Clouds,dailyrainin,SolarRadiationWatts/m^2,SoftwareType,DateUTC
2013-04-03 00:12:00,43.0,38.0,-100.00,East,100,3.0,4.0,81,-99.99,,,0.00,0.000000,,2013-04-03 07:12:00,
2013-04-03 01:12:00,44.0,38.0,-100.00,ESE,104,3.0,5.0,78,-99.99,,,-99.99,0.000000,,2013-04-03 08:12:00,
2013-04-03 02:12:00,40.0,36.0,-100.00,SE,134,3.0,4.0,85,-99.99,,,-99.99,0.000000,,2013-04-03 09:12:00,
2013-04-03 03:12:00,38.0,36.0,-100.00,SSE,159,4.0,5.0,89,-99.99,,,-99.99,0.000000,,2013-04-03 10:12:00,
2013-04-03 04:12:00,36.0,33.0,-100.00,SSE,158,4.0,5.0,91,-99.99,,,0.00,0.000000,,2013-04-03 11:12:00,
2013-04-03 05:12:00,35.0,34.0,-100.00,SSE,149,2.0,3.0,94,-99.99,,,0.00,0.000000,,2013-04-03 12:12:00,
2013-04-03 06:12:00,35.0,33.0,-100.00,SSE,152,6.0,7.0,93,-99.99,,,0.00,0.000000,,2013-04-03 13:12:00,
2013-04-03 07:12:00,35.0,34.0,-100.00,SE,140,6.0,7.0,93,-99.99,,,0.00,0.120000,,2013-04-03 14:12:00,
2013-04-03 08:12:00,36.0,34.0,-100.00,South,187,4.0,4.0,92,-99.99,,,0.00,59.389999,,2013-04-03 15:12:00,
2013-04-03 09:12:00,42.0,38.0,-100.00,SE,136,4.0,7.0,83,-99.99,,,0.00,241.850006,,2013-04-03 16:12:00,
2013-04-03 10:13:00,47.0,38.0,-100.00,WSW,242,2.0,3.0,72,-99.99,,,0.00,366.559998,,2013-04-03 17:13:00,
2013-04-03 12:12:00,57.0,40.0,-100.00,West,260,5.0,10.0,54,-99.99,,,-99.99,650.830017,,2013-04-03 19:12:00,
2013-04-03 13:12:00,60.0,38.0,-100.00,WSW,257,6.0,12.0,43,-99.99,,,-99.99,596.090027,,2013-04-03 20:12:00,
2013-04-03 14:12:00,63.0,34.0,-100.00,SW,216,4.0,11.0,33,-99.99,,,0.00,596.440002,,2013-04-03 21:12:00,
2013-04-03 15:12:00,64.0,34.0,-100.00,SSW,193,5.0,10.0,31,-99.99,,,-99.99,603.070007,,2013-04-03 22:12:00,
2013-04-03 16:12:00,66.0,30.0,-100.00,SW,225,4.0,9.0,26,-99.99,,,0.00,588.650024,,2013-04-03 23:12:00,
2013-04-03 17:12:00,66.0,30.0,-100.00,NNW,344,4.0,8.0,25,-99.99,,,0.00,514.159973,,2013-04-04 00:12:00,
2013-04-03 18:11:00,67.0,30.0,-100.00,North,352,4.0,9.0,25,-99.99,,,0.00,295.549988,,2013-04-04 01:11:00,
2013-04-03 19:12:00,65.0,34.0,-100.00,NNE,20,5.0,8.0,32,-99.99,,,0.00,128.419998,,2013-04-04 02:12:00,
2013-04-03 20:12:00,59.0,37.0,-100.00,NE,44,3.0,5.0,43,-99.99,,,0.00,23.590000,,2013-04-04 03:12:00,
2013-04-03 21:12:00,57.0,35.0,-100.00,NNE,31,2.0,4.0,43,-99.99,,,0.00,0.120000,,2013-04-04 04:12:00,
2013-04-03 22:12:00,54.0,35.0,-100.00,NE,38,3.0,5.0,46,-99.99,,,0.00,0.120000,,2013-04-04 05:12:00,
2013-04-03 23:12:00,53.0,36.0,-100.00,North,9,4.0,5.0,51,-99.99,,,0.00,0.120000,,2013-04-04 06:12:00,